Location: Gu�tanj
(46.5431°N, 14.9692°E)
Time: 15:03:57
(UTC+00:00)

Helios 1A Rocket - Pass Details

Date: 03 March 2021
Orbit: 563 x 585 km, 98.3° (Epoch: 20 April)

Event Time Altitude Azimuth Distance (km) Brightness Sun altitude
Rises 17:36:45 0° 152° (SSE) 2,768 6.1 -9.0°
Reaches altitude 10° 17:38:56 10° 147° (SSE) 1,871 5.2 -9.4°
Maximum altitude 17:42:51 52° 72° (ENE) 717 3.0 -10.0°
Drops below altitude 10° 17:46:48 10° 356° (N) 1,876 5.6 -10.7°
Sets 17:48:59 0° 351° (N) 2,775 6.6 -11.1°
